{"data":{"norad_id":68515,"epoch":"2026-05-25T03:20:43.910304Z","epoch_age_seconds":70687,"freshness":"FRESH","line1":"1 68515U 26068H   26145.13939711  .00023354  00000+0  70002-3 0  9997","line2":"2 68515  53.1585 133.1795 0001057 101.8421 258.2700 15.34406368  8667","mean_motion":15.34406368,"eccentricity":0.0001057,"inclination_deg":53.1585,"raan_deg":133.1795,"arg_perigee_deg":101.8421,"mean_anomaly_deg":258.27,"bstar":0.00070002,"rev_number":866,"period_min":93.847368600076,"perigee_km":461.96123842176,"apogee_km":463.40738804738,"semimajor_km":6840.8213132346,"source":"CELESTRAK","updated_at":"2026-05-25T13:38:21.953859Z"}}